Location: Chantarel
(45.1638°N, 1.7873°E)
Time: 14:30:36
(UTC+00:00)

IRS-1C Rocket - Pass Details

Date: 03 March 2021
Orbit: 800 x 806 km, 99.0° (Epoch: 11 April)

Event Time Altitude Azimuth Distance (km) Brightness Sun altitude
Rises 18:04:23 0° 156° (SSE) 3,302 7.1 -4.6°
Reaches altitude 10° 18:06:42 10° 154° (SSE) 2,377 6.3 -5.0°
Maximum altitude 18:11:55 69° 72° (ENE) 860 4.1 -5.9°
Drops below altitude 10° 18:17:11 10° 350° (N) 2,396 6.7 -6.8°
Sets 18:19:32 0° 348° (NNW) 3,332 7.4 -7.2°
